Home   Weather   Puerto Montt   Past weeks

Flag for Chile Past Weather in Puerto Montt, Chile — Yesterday and Last 2 Weeks

Now
59 °F

Light rain. More clouds than sun.


Feels Like: 57 °F
Forecast: 55 / 63 °F
Wind: 12 mph from West

Location: Puerto Montt Airport

Current Time: Dec 10, 2016 at 11:59:35 am

Latest Report: Dec 10, 2016 at 11:00 am


Visibility: 2 mi

Pressure: 29.98 "Hg

Humidity: 88%

Dew Point: 55 °F

Location of Puerto MonttLocation

Past Weather in Puerto Montt — Graph

°F

Puerto Montt Temperature Yesterday

Maximum temperature yesterday: 68 °F (at 2:00 pm)
Minimum temperature yesterday: 48 °F (at 2:00 am)
Average temperature yesterday: 57 °F

High & Low Weather Summary for the Past Weeks

 TemperatureHumidityPressure
High75 °F (Dec 3, 3:00 pm)100% (Dec 2, 4:00 am)30.33 "Hg (Dec 2, 4:00 am)
Low41 °F (Dec 3, 7:00 am)31% (Dec 3, 3:00 pm)29.65 "Hg (Dec 4, 3:00 pm)
Average57 °F79%30.03 "Hg
* Reported Nov 25 10:00 am — Dec 10 10:00 am, Puerto Montt, Weather by CustomWeather, © 2016

Note: Actual official high and low records may vary slightly from our data, if they occured in-between our weather recording intervals... More about our weather records

Advertising

Puerto Montt Weather History for the Previous 24 Hours

Scroll right to see more
 ConditionsComfort  
Time TempWeatherWind HumidityBarometerVisibility
10:00 am
Sat, Dec 10
57 °FDrizzle. Mostly cloudy.13 mph94%29.95 "Hg2 mi
9:00 am57 °FDrizzle. Mostly cloudy.9 mph100%29.95 "Hg1 mi
8:00 am57 °FDrizzle. Mostly cloudy.6 mph94%29.92 "Hg1 mi
7:00 am57 °FLight rain. Mostly cloudy.3 mph94%29.92 "Hg1 mi
6:00 am57 °FScattered showers. Low clouds.6 mph94%29.89 "Hg5 mi
5:00 am57 °FLow clouds.8 mph94%29.92 "HgN/A
4:00 am57 °FDrizzle. Mostly cloudy.6 mph94%29.92 "Hg2 mi
3:00 am55 °FDrizzle. Mostly cloudy.10 mph94%29.92 "Hg3 mi
2:00 am55 °FOvercast.14 mph94%29.92 "HgN/A
1:00 am55 °FRain. Overcast.15 mph100%29.92 "HgN/A
12:00 am55 °FLight rain. Mostly cloudy.12 mph94%29.92 "Hg2 mi
11:00 pm
Fri, Dec 9
55 °FLight rain. Overcast.8 mph88%29.95 "Hg2 mi
10:00 pm55 °FOvercast.6 mph88%29.98 "HgN/A
9:00 pm59 °FLight rain. Mostly cloudy.1 mph88%29.98 "Hg3 mi
8:00 pm61 °FMore clouds than sun.3 mph77%29.98 "HgN/A
7:00 pm63 °FMore clouds than sun.8 mph73%29.98 "HgN/A
6:00 pm66 °FBroken clouds.10 mph56%29.98 "HgN/A
5:00 pm68 °FPartly sunny.10 mph53%29.98 "HgN/A
4:00 pm68 °FPartly sunny.13 mph49%30.01 "HgN/A
3:00 pm66 °FPartly sunny.12 mph60%30.01 "HgN/A
2:00 pm68 °FPartly sunny.6 mph53%30.04 "HgN/A
1:00 pm66 °FPartly sunny.6 mph52%30.04 "HgN/A
12:00 pm61 °FPartly sunny.No wind77%30.04 "HgN/A
11:00 am57 °FOvercast.5 mph82%30.04 "HgN/A
Weather by CustomWeather, © 2016

See weather overviewHow to use our weather pages